Regional Weather Roundup
Issued by NWS

Home | Current Version | Previous Version | Graphics & Text | Print | Product List | Glossary On
Versions: 1 2 3 4 5 6 7 8 9 10 11 12 13 14 15 16 17 18 19 20 21 22 23 24 25 26 27 28 29 30 31 32 33 34 35 36 37 38 39 40 41 42 43 44 45 46 47 48 49 50
000
ASUS43 KMKX 230821
RWRWI

WISCONSIN REGIONAL WEATHER ROUNDUP
NATIONAL WEATHER SERVICE MILWAUKEE/SULLIVAN WI
300 AM CDT SUN JUL 23 2017

NOTE: "FAIR" INDICATES FEW OR NO CLOUDS BELOW 12,000 FEET WITH NO
SIGNIFICANT WEATHER AND/OR OBSTRUCTIONS TO VISIBILITY.

WIZ001-002-006>008-014>016-023>028-230900-
NORTHWEST WISCONSIN

CITY           SKY/WX    TMP DP  RH WIND       PRES   REMARKS
SUPERIOR ARPT  NOT AVBL
ASHLAND        FOG       59  59 100 CALM      29.81F VSB 1/4
HAYWARD        CLOUDY    59  57  93 CALM      29.82F
SIREN          MOCLDY    63  56  78 NW3       29.83F
CUMBERLAND     PTCLDY    63  54  72 NW6       29.83F
RICE LAKE      MOCLDY    62  58  85 CALM      29.84S
CHETEK         PTCLDY    61  59  92 CALM      29.82F
LADYSMITH      CLOUDY    64  61  91 SW3       29.83S
EAU CLAIRE     CLEAR     64  64 100 CALM      29.80F
MENOMONIE      CLEAR     65  62  88 SW6       29.82S
NEW RICHMOND   CLOUDY    62  60  93 CALM      29.83F
OSCEOLA        CLOUDY    64  64 100 CALM      29.85F
$$

WIZ003>005-009-010-017-018-230900-
NORTH CENTRAL WISCONSIN

CITY           SKY/WX    TMP DP  RH WIND       PRES   REMARKS
MANITOWISH WTR FOG       62  62 100 SW3       29.80S VSB 1/4
ARBOR VITAE    CLOUDY    62  61  96 CALM      29.79F
WOODRUFF       CLOUDY    62  61  96 CALM      29.79F
RHINELANDER    FOG       58  58 100 W3        29.81S VSB 1/4
EAGLE RIVER    FOG       60  60 100 CALM      29.79F VSB<1/4
LAND O LAKES   FOG       61  61 100 CALM      29.80F VSB<1/4
PHILLIPS       FOG       58  58 100 CALM      29.80S VSB 3/4
TOMAHAWK       FOG       57  56  97 CALM      29.81S VSB 1/4
MEDFORD        FOG       60  60  99 CALM      29.80F VSB 1/2
MERRILL        CLEAR     62  62 100 CALM      29.80S
$$

WIZ029-030-035-036-043>047-230900-
CENTRAL WISCONSIN

CITY           SKY/WX    TMP DP  RH WIND       PRES   REMARKS
WAUSAU         CLEAR     68  64  87 NW5       29.78F
MOSINEE        CLEAR     64  63  94 NW6       29.80F
MARSHFIELD     CLEAR     64  61  90 NW3       29.80F
STEVENS POINT  CLEAR     67  67 100 CALM      29.80F
WAUPACA        PTCLDY    71  70  95 W5        29.78S
WAUTOMA        CLEAR     69  67  93 NW7       29.79F
WISC RAPIDS    FOG       63  63 100 CALM      29.80F VSB 1/4
CAMP DOUGLAS   CLEAR     63  63 100 NW5       29.80F
$$

WIZ011>013-019>022-031-037>040-048>050-230900-
NORTHEAST WISCONSIN

CITY           SKY/WX    TMP DP  RH WIND       PRES   REMARKS
ANTIGO         CLEAR     59  59 100 CALM      29.80F
SHAWANO        FOG       69  67  95 CALM      29.76S VSB 3/4
OCONTO         CLOUDY    64  64  99 W3        29.75S
STURGEON BAY     N/A     66  62  87 SW8       29.75F
GREEN BAY      CLEAR     67  67 100 CALM      29.76F
MANITOWOC      CLOUDY    66  64  94 S9        29.77F
APPLETON       CLEAR     68  68 100 CALM      29.76F
CLINTONVILLE   FOG       68  68 100 W3        29.78R VSB 1/2
OSHKOSH        PTCLDY    73  70  90 CALM      29.77S
$$

WIZ032>034-041-042-053>061-230900-
SOUTHWEST WISCONSIN

CITY           SKY/WX    TMP DP  RH WIND       PRES   REMARKS
LA CROSSE      FOG       71  69  93 S7        29.80F VSB 1
SPARTA         PTCLDY    60  60 100 CALM      29.82S
VIROQUA        CLEAR     65  65 100 W5        29.83F
BOSCOBEL       MOCLDY    67  66  97 CALM      29.81S FOG
PRAIRIE DU CHI CLEAR     69  66  89 CALM      29.81F
PLATTEVILLE    CLOUDY    71  71 100 NW5       29.83F
$$

WIZ056-057-062-063-064-067-068-230900-
SOUTH CENTRAL WISCONSIN

CITY           SKY/WX    TMP DP  RH WIND       PRES   REMARKS
REEDSBURG      CLEAR     67  67 100 W3        29.81S
BARABOO/DELLS  CLEAR     69  67  92 W3        29.81R
LONE ROCK      CLOUDY    69  68  96 W5        29.81R FOG
MINERAL POINT  FOG       70  70 100 W3        29.83R VSB 1/4
MADISON        CLOUDY    73  70  90 CALM      29.79F
MIDDLETON      MOCLDY    71  71 100 NW3       29.81S
WATERTOWN      PTCLDY    66  66 100 CALM      29.79S
MONROE         CLOUDY    73  70  88 NW6       29.81F
JANESVILLE     CLOUDY    72  72 100 CALM      29.78F
$$

WIZ051-052-058>065-066-070>072-230900-
SOUTHEAST WISCONSIN

CITY           SKY/WX    TMP DP  RH WIND       PRES   REMARKS
MILWAUKEE      PTCLDY    72  70  93 CALM      29.79S
WAUKESHA       MOCLDY    68  68 100 CALM      29.81S
MILWAUKEE/TIMM MOCLDY    68  64  88 S3        29.79S FOG
RACINE         CLEAR     68  68 100 CALM      29.80F FOG
KENOSHA        CLEAR     70  68  93 CALM      29.79F
FOND DU LAC    CLOUDY    73  69  87 W3        29.77F
SHEBOYGAN      CLOUDY    67  67 100 E6        29.78F
WEST BEND      CLOUDY    70  68  94 E6G14     29.79S
JUNEAU         PTCLDY    68  67  97 CALM      29.79F
$$

LSZ147-162-230900-
LAKE SUPERIOR

STATION/POSITION TIME  TEMP    WIND        PRES    WAVE
                       AIR SEA DIR/SP/G            HT/PER
                 (UTC) (F)     (DEG/KT/KT) (MB)    (FT/S)
W MID LAKE BUOY  0750   49 48   10/  6/  8 1009.2F   2/ 4
DEVILS ISLAND    0800   55      10/  4/  5 1009.9F
SAXON HARBOR     0740   59     320/  6/ 10 1009.1R
$$

LMZ867-665-643>646-230900-
LAKE MICHIGAN

STATION/POSITION TIME  TEMP    WIND        PRES    WAVE
                       AIR SEA DIR/SP/G            HT/PER
                 (UTC) (F)     (DEG/KT/KT) (MB)    (FT/S)
CHAMBERS ISLAND  0740   69     200/  3/  6 1006.8F
S GREEN BAY BUOY 0800   69 72  200/ 10/ 12 1007.1
N MID LAKE BUOY  0750   68 68  210/  4/  4 1007.5F   0
NORTHPORT PIER   0740   66     200/  4/  6 1007.5S
KEWAUNEE LAKESHO 0754   67     210/  7/ 10 1007.2S
SHEBOYGAN LAKESH 0800   67      90/ 11/ 11 1007.8F
PORT WASHINGTON  0740   70      40/ 12/ 16 1009.5S
ATWATER BUOY     0739   70 68  170/  6/  6 1008.7F
MILWAUKEE LAKESH 0800   70     190/  6/  6   N/A
S MID LAKE BUOY  0750   70 70   CALM  /  2 1008.8F   0
KENOSHA   LAKESH 0800   72     220/  2/  5 1008.5
$$

TC  - TEMPERATURE IN CELSIUS
VSB - VISIBILITY IN STATUTE MILES
WCI - WIND CHILL INDEX
HX  - HEAT INDEX




USA.gov is the U.S. government's official web portal to all federal, state and local government web resources and services.